User: anonymous   Login
Location: Anjeux
(47.8815°N, 6.2076°E)
Time: 13:06:35
(UTC+00:00)
Language:

CUTE 1.7 + AOD 2 - Orbit

View from above orbital plane
View from above orbital plane
View from above satellite
View from above satellite

Ground track
Ground track

The orbit data is extracted from the following two-line orbital elements,

1 32785U 08021C   21339.85070986  .00000521  00000-0  61033-4 0  9992
2 32785  97.6330 312.2541 0013550 149.3778 210.8233 14.88917283737676
Epoch (UTC): 05 December 2021 20:25:01
Eccentricity: 0.0013550
inclination: 97.6330°
perigee height: 592 km
apogee height: 611 km
right ascension of ascending node: 312.2541°
argument of perigee: 149.3778°
revolutions per day: 14.88917283
mean anomaly at epoch: 210.8233°
orbit number at epoch: 73767

The dashed part of the orbit path shows where the satellite is in the earth's shadow,  

DLR